Simultaneous Nadir Overpasses (SNOs) Predictions

Prediction of SNOs between NOAA-19 and METOP-C Satellite Orbit:

Table of predicted SNOs for the next 14.0 days since TLE Epoch: 1/18/2019
Index Date (NOAA-19) Time (NOAA-19) Lat,Lon (NOAA-19) SZA (NOAA-19 ) Date (METOP-C) Time (METOP-C) Lat,Lon (METOP-C) SZA (METOP-C ) Distance(km) Time Diff (sec)
1 01/29/2019 01:06:34 -79.18, -4.92 82.72 01/29/2019 01:07:41 -79.15, -1.68 82.64 67.83 67
2 01/29/2019 01:57:25 78.96, 164.16 97.10 01/29/2019 01:58:26 78.94, 164.22 97.10 2.09 61
3 01/29/2019 02:48:27 -78.92, -28.35 82.93 01/29/2019 02:49:08 -78.96, -28.36 82.90 3.62 41
4 01/29/2019 03:39:25 78.92, 138.90 97.06 01/29/2019 03:39:48 78.93, 138.79 97.07 2.40 23
5 01/29/2019 04:30:28 -78.92, -53.86 82.95 01/29/2019 04:30:30 -78.94, -53.78 82.93 2.59 2
6 01/29/2019 05:21:26 78.93, 113.39 97.05 01/29/2019 05:21:10 78.91, 113.36 97.03 1.40 16
7 01/29/2019 06:12:29 -78.93, -79.37 82.97 01/29/2019 06:11:52 -78.93, -79.21 82.97 3.39 37
8 01/29/2019 07:03:27 78.93, 87.87 97.03 01/29/2019 07:02:32 78.90, 87.94 97.00 3.26 55




NCC Satellite Simultaneous Nadir Overpasses (SNOs) Prediction Service
